[[{"header":{"parameterUnit":"m.s-1","parameterCategory":1,"la1":30.2991,"la2":30.254,"lo1":-89.0895,"lo2":-89.0444,"dy":0.0017,"dx":0.0017,"nx":28,"ny":28,"refTime":"2025-04-15T03:00:00:Z","depth":0,"parameterNumber":2,"parameterNumberName":"U-component_of_WINDS"},"data":[0,0,0,0,0,0,0,0,0,0,0,0,0,0,0,0,0,0,0,0,0,0,0,0,0,0,0,0,0,0,0,0,0,0,0,0,0,0,0,0,0,0,0,0,0,0,0,0,0,0,0,0,0,0,0,0,0,0,4.7583,4.7585,0,4.7753,4.7755,4.7756,4.7711,4.7707,4.7704,4.7701,4.7877,4.7885,4.7893,0,0,0,0,0,0,0,0,0,0,0,0,0,4.7221,4.7228,4.7583,4.7585,4.7587,4.7752,4.7755,4.7757,4.7711,4.7707,4.7703,4.7699,4.7875,4.7884,4.7893,0,0,0,0,0,0,0,0,0,0,0,0,0,4.7383,4.723,4.7583,4.7584,4.7586,4.7752,4.7755,4.7758,4.7712,4.7707,4.7702,4.7697,4.7872,4.7883,4.7895,4.807,0,0,4.7931,4.7936,0,0,0,0,0,0,0,0,4.7374,4.7397,4.7582,4.7584,4.7587,4.7705,4.7692,4.7862,4.7713,4.7664,4.7701,4.7695,4.7824,4.784,4.7883,4.8078,4.8086,4.7932,4.7939,4.7944,4.7947,0,0,0,0,0,0,0,4.7363,4.7389,4.765,4.7585,4.7588,4.7577,4.7594,4.7724,4.7771,4.7668,4.7665,4.7686,4.7825,4.7872,4.7887,4.8088,4.7931,4.7942,4.7949,4.7954,4.8434,4.844,0,0,0,0,0,0,4.735,4.738,4.7645,4.7655,4.7466,4.7588,4.7607,4.7672,4.777,4.7779,4.769,4.7683,4.7854,4.7873,4.7893,4.8103,4.7944,4.7955,4.7962,4.8429,4.8436,4.8442,0,0,0,0,0,0,4.7342,4.7374,4.7638,4.7517,4.755,4.7599,4.7673,4.7678,4.7725,4.7786,4.7794,4.7729,4.7851,4.7876,4.8026,4.8108,4.796,4.7971,4.8422,4.8431,4.8439,4.8525,0,0,0,0,0,0,4.7332,4.7371,4.7438,4.7519,4.7556,4.7768,4.7678,4.7685,4.7745,4.7738,4.7825,4.7834,4.7849,4.8008,4.8037,4.8122,4.798,4.8415,4.8426,4.8436,4.8515,4.8535,4.8553,0,0,0,0,0,4.7319,4.7457,4.7442,4.7474,4.7641,4.7773,4.7794,4.7807,4.7752,4.782,4.7859,4.7832,4.8095,4.8024,4.8056,4.8145,4.841,4.8423,4.8435,4.8506,4.8531,4.8552,0,0,0,0,0,0,4.7386,4.7467,4.7452,4.7619,4.7689,4.7765,4.785,4.7833,4.7921,4.791,4.7923,4.7943,4.8096,4.8136,4.8056,4.8319,4.8244,4.8264,4.8287,4.8311,4.833,4.8316,4.799,0,0,0,0,0,4.7419,4.7519,4.7585,4.7727,4.7763,4.7801,4.7859,4.7862,4.7935,4.7965,4.8015,4.8088,4.8186,4.8252,4.8346,4.8521,4.8538,4.8598,4.8617,4.8632,4.8649,4.8742,4.8769,4.8484,4.8484,4.8483,0,0,4.7491,4.7548,4.761,4.7742,4.7796,4.7899,4.7826,4.7938,4.8015,4.7983,4.8126,4.8165,4.8247,4.841,4.8484,4.8448,4.8732,4.8649,4.866,4.8669,4.8758,4.8785,4.8809,4.8492,4.8491,4.8489,0,0,4.7673,4.7727,4.7849,4.7905,4.7988,4.8013,4.8042,4.8121,4.8145,4.8289,4.8266,4.8358,4.8528,4.8587,4.8639,4.8843,4.8821,4.8874,4.8972,4.9063,4.9086,4.9106,4.9176,4.9202,4.889,4.8891,4.8891,0,4.7751,4.7905,4.7915,4.8029,4.8087,4.8062,4.8186,4.824,4.835,4.8391,4.8349,4.8561,4.8615,4.879,4.8839,4.8883,4.8916,4.8863,4.9081,4.9102,4.912,4.9188,4.9215,4.8896,4.8896,4.8895,4.8895,0,4.7996,4.8103,4.8192,4.8297,4.8366,4.8485,4.8513,4.8581,4.8579,4.8607,4.8754,4.8817,4.8923,4.8965,4.8965,4.914,4.9115,4.9078,4.9002,4.9153,4.9217,4.9243,4.8905,4.8902,4.8901,4.8899,0,0,4.8224,4.8333,4.8365,4.8412,4.8502,4.8585,4.8702,4.8804,4.8862,4.8939,4.9037,4.9181,4.9147,4.9206,4.9212,4.9292,4.9447,4.9245,4.9247,4.9278,4.9642,4.9668,4.9698,4.9434,4.9439,4.9443,4.9634,0,4.8412,4.8617,4.863,4.8816,4.8914,4.8891,4.8993,4.9059,4.9089,4.9177,4.9211,4.9312,4.9259,4.9295,4.9373,4.9412,4.952,4.9398,4.9524,4.9528,4.9502,4.9731,4.976,4.9937,4.9659,4.9664,4.9667,0,4.8659,4.8742,4.8937,4.9011,4.9053,4.9144,4.9238,4.9323,4.9397,4.9413,4.9479,4.9474,4.9594,4.9515,4.9681,4.9597,4.965,4.9677,4.9684,4.9695,4.9605,4.9746,4.9994,5.002,4.9706,4.9703,4.97,0,4.8803,4.8964,4.9101,4.9142,4.9232,4.9297,4.9338,4.9407,4.9467,4.955,4.9589,4.9686,4.9738,4.9813,4.9833,4.9775,4.9998,4.9921,5.0014,5.0013,5.006,5.0057,5.0318,5.0098,5.0097,5.0097,5.0096,0,4.9011,4.9131,4.9166,4.925,4.9384,4.9397,4.9529,4.9566,4.9628,4.9719,4.9706,4.9792,4.9815,4.9905,4.9922,5.0055,5.008,5.0095,5.0098,5.0095,5.0093,5.0128,5.0116,5.0104,5.0102,5.0101,5.01,0,4.9193,4.9222,4.9369,4.9443,4.9464,4.9559,4.9622,4.9703,4.9731,4.9846,4.9874,4.9918,5.0023,5.0051,5.0178,5.0189,5.0345,5.0338,5.032,5.0319,5.0409,5.0399,5.07,5.074,5.0496,5.0498,5.05,0,4.9323,4.9414,4.9497,4.9556,4.9599,4.9696,4.9756,4.9774,4.9838,4.9929,4.9998,5.0102,5.0185,5.0354,5.0398,5.0494,5.0487,5.0586,5.0502,5.0495,5.0486,5.0479,5.0488,5.0602,5.0604,5.0606,5.0608,0,4.9549,4.9558,4.9646,4.9739,4.9812,4.9886,4.9958,5.0007,5.0034,5.0107,5.0214,5.0278,5.0406,5.0508,5.0606,5.0648,5.0633,5.0635,5.0661,5.0658,5.0642,5.0649,5.0361,5.0627,5.0625,5.0624,5.0623,5.0622,4.9707,4.9786,4.9856,4.9955,5.001,5.0076,5.0155,5.0193,5.0281,5.0386,5.0391,5.0507,5.0578,5.0706,5.0754,5.0845,5.0815,5.0853,5.0863,5.0871,5.0878,5.063,5.0863,5.0862,5.0862,5.0861,5.0861,0,4.993,4.9974,5.0064,5.0163,5.024,5.0219,5.0297,5.0362,5.0464,5.0531,5.0613,5.0735,5.0834,5.0885,5.0983,5.1046,5.1041,5.1071,5.1065,5.1075,5.09,5.0866,5.1073,5.1073,5.1073,5.1072,5.1072,5.1072,5.0055,5.0188,5.0205,5.0365,5.0408,5.052,5.0566,5.0627,5.0681,5.0817,5.0898,5.0931,5.0992,5.1094,5.1184,5.1196,5.1232,5.1265,5.1274,5.1109,5.1087,5.1067,5.1035,5.1273,5.1274,5.1441,5.1442,5.1443]},{"header":{"parameterUnit":"m.s-1","parameterCategory":1,"la1":30.2991,"la2":30.254,"lo1":-89.0895,"lo2":-89.0444,"dy":0.0017,"dx":0.0017,"nx":28,"ny":28,"refTime":"2025-04-15T03:00:00:Z","depth":0,"parameterNumber":3,"parameterNumberName":"V-component_of_WINDS"},"data":[0,0,0,0,0,0,0,0,0,0,0,0,0,0,0,0,0,0,0,0,0,0,0,0,0,0,0,0,0,0,0,0,0,0,0,0,0,0,0,0,0,0,0,0,0,0,0,0,0,0,0,0,0,0,0,0,0,0,3.0882,3.0884,0,3.1063,3.1065,3.1067,3.1078,3.1076,3.1074,3.1072,3.1256,3.1263,3.1269,0,0,0,0,0,0,0,0,0,0,0,0,0,3.0545,3.0552,3.0882,3.0884,3.0887,3.1062,3.1065,3.1067,3.1078,3.1076,3.1073,3.1071,3.1254,3.1262,3.127,0,0,0,0,0,0,0,0,0,0,0,0,0,3.0705,3.0554,3.0882,3.0913,3.0918,3.1062,3.1065,3.1068,3.1079,3.1076,3.1073,3.107,3.1251,3.1261,3.1271,3.1396,0,0,3.1302,3.1307,0,0,0,0,0,0,0,0,3.0696,3.0718,3.0906,3.0911,3.0917,3.1045,3.1014,3.1178,3.1079,3.1018,3.1072,3.1068,3.1188,3.1203,3.1244,3.1405,3.1412,3.1303,3.131,3.1314,3.1317,0,0,0,0,0,0,0,3.0685,3.071,3.0954,3.0909,3.0915,3.0918,3.0937,3.1045,3.1118,3.1023,3.1024,3.1045,3.119,3.1234,3.1248,3.1415,3.1303,3.1312,3.1318,3.1322,3.1686,3.1689,0,0,0,0,0,0,3.0668,3.0701,3.0948,3.0959,3.0797,3.0926,3.0948,3.1007,3.1117,3.1131,3.1048,3.1045,3.1218,3.1236,3.1255,3.1408,3.1314,3.1323,3.1329,3.1683,3.1687,3.1691,0,0,0,0,0,0,3.0661,3.069,3.0941,3.083,3.0862,3.0936,3.1001,3.1012,3.1056,3.1136,3.1149,3.1079,3.1216,3.1241,3.1361,3.1415,3.1328,3.1337,3.1678,3.1684,3.1689,3.1715,0,0,0,0,0,0,3.0651,3.0687,3.0736,3.0831,3.0868,3.1044,3.1005,3.1018,3.1073,3.1072,3.1169,3.1182,3.1216,3.1345,3.1371,3.1427,3.1345,3.1674,3.1681,3.1687,3.171,3.1721,3.173,0,0,0,0,0,3.0639,3.0736,3.0738,3.0768,3.0931,3.1047,3.1068,3.1106,3.1078,3.1127,3.1178,3.1179,3.1404,3.1358,3.1386,3.1446,3.1671,3.1679,3.1687,3.1705,3.1718,3.173,0,0,0,0,0,0,3.0646,3.0749,3.0753,3.0884,3.0957,3.1049,3.1112,3.1119,3.1201,3.1196,3.1238,3.126,3.1379,3.1425,3.1371,3.1572,3.1534,3.1548,3.1539,3.1552,3.1562,3.1549,3.1354,0,0,0,0,0,3.0662,3.0748,3.0834,3.0942,3.0978,3.1038,3.1091,3.1113,3.119,3.1221,3.1281,3.1355,3.1443,3.15,3.1585,3.1716,3.1737,3.1771,3.1781,3.1789,3.1801,3.1873,3.1889,3.1717,3.1717,3.1716,0,0,3.0698,3.0765,3.0817,3.0945,3.1004,3.1091,3.1064,3.1159,3.1224,3.1235,3.1352,3.1399,3.1484,3.161,3.1669,3.1652,3.1853,3.1799,3.1805,3.1813,3.1883,3.1899,3.1914,3.1722,3.1721,3.172,0,0,3.0807,3.0867,3.0963,3.1022,3.1111,3.1151,3.1174,3.1265,3.1296,3.1414,3.1424,3.1502,3.1652,3.1713,3.1763,3.1894,3.1897,3.192,3.1973,3.2043,3.2057,3.2069,3.2116,3.2132,3.1932,3.1932,3.1932,0,3.084,3.0973,3.1011,3.1105,3.1161,3.1174,3.1271,3.1327,3.1439,3.1477,3.1457,3.1645,3.1703,3.1843,3.1875,3.1915,3.1942,3.191,3.2052,3.2064,3.2076,3.2121,3.2139,3.1934,3.1934,3.1933,3.1933,0,3.1009,3.1101,3.1168,3.1276,3.1339,3.1434,3.1485,3.1545,3.1561,3.1602,3.1722,3.1792,3.1892,3.1926,3.1944,3.2069,3.2056,3.2043,3.2006,3.2095,3.2137,3.2155,3.1937,3.1936,3.1936,3.1935,0,0,3.1129,3.1256,3.128,3.1329,3.1428,3.15,3.1595,3.1692,3.1742,3.1818,3.1899,3.2025,3.2013,3.207,3.2094,3.2155,3.2254,3.2135,3.2138,3.2155,3.2396,3.2406,3.2425,3.2256,3.226,3.2263,3.2389,0,3.125,3.1421,3.1456,3.1603,3.1689,3.1702,3.1784,3.1854,3.1894,3.1972,3.2017,3.2106,3.2084,3.2118,3.2179,3.2229,3.2303,3.2221,3.2332,3.2335,3.2311,3.2447,3.2458,3.2574,3.2406,3.2409,3.2411,0,3.1414,3.1495,3.165,3.1737,3.1774,3.1848,3.1939,3.2014,3.2092,3.2117,3.218,3.2197,3.2296,3.2253,3.2389,3.2332,3.2379,3.241,3.2416,3.2428,3.2379,3.2464,3.2612,3.2629,3.2438,3.2436,3.2434,0,3.1487,3.1634,3.1746,3.1787,3.1891,3.1943,3.1988,3.2064,3.2119,3.2199,3.2235,3.2325,3.2374,3.2443,3.2483,3.2448,3.2616,3.2577,3.264,3.2639,3.2676,3.2673,3.2834,3.2705,3.2705,3.2704,3.2704,0,3.1618,3.1713,3.1779,3.1848,3.1954,3.1994,3.2098,3.2143,3.2209,3.2287,3.2303,3.2375,3.2424,3.2503,3.2535,3.2643,3.2665,3.2687,3.2695,3.2687,3.2684,3.2719,3.2712,3.2709,3.2708,3.2707,3.2706,0,3.1717,3.1766,3.1889,3.1977,3.2001,3.2075,3.215,3.2217,3.2258,3.2355,3.2381,3.2444,3.2537,3.2584,3.27,3.2722,3.2843,3.2846,3.2817,3.282,3.2881,3.2875,3.3071,3.3098,3.295,3.2952,3.2953,0,3.1798,3.1872,3.1967,3.202,3.2067,3.2153,3.2209,3.2251,3.2309,3.2403,3.2459,3.2553,3.2631,3.2779,3.2835,3.2924,3.2929,3.2991,3.2942,3.2931,3.293,3.2925,3.2933,3.3,3.3002,3.3003,3.3004,0,3.1937,3.1957,3.2039,3.2129,3.2196,3.2269,3.234,3.2383,3.2436,3.25,3.2596,3.2656,3.2775,3.2868,3.296,3.3007,3.3014,3.3018,3.3038,3.303,3.3011,3.3022,3.2842,3.3014,3.3013,3.3012,3.3012,3.3011,3.203,3.2096,3.2173,3.2263,3.2321,3.2387,3.2455,3.2503,3.2584,3.2684,3.2703,3.2804,3.288,3.3005,3.3054,3.3133,3.312,3.3148,3.3155,3.3161,3.3164,3.2997,3.315,3.315,3.315,3.315,3.3149,0,3.217,3.222,3.2303,3.2402,3.2473,3.2473,3.2552,3.2611,3.27,3.277,3.2846,3.2956,3.3046,3.3108,3.32,3.3251,3.3257,3.3274,3.3271,3.3281,3.3171,3.3146,3.3268,3.3268,3.3268,3.3268,3.3268,3.3268,3.2251,3.2362,3.2391,3.253,3.2579,3.2679,3.2724,3.2785,3.2841,3.2963,3.3038,3.3078,3.3145,3.3241,3.3323,3.3339,3.3372,3.3389,3.3405,3.3302,3.3289,3.3277,3.3253,3.3396,3.3396,3.3509,3.351,3.351]}]]